Location: Moena
(46.3667°N, 11.6500°E)
Time: 20:55:37
(UTC+00:00)

Meteor 1-25 Rocket - Pass Details

Date: 03 March 2021
Orbit: 835 x 893 km, 81.2° (Epoch: 20 April)

Event Time Altitude Azimuth Distance (km) Brightness Sun altitude
Rises 17:29:40 0° 180° (S) 3,473 7.5 -5.5°
Reaches altitude 10° 17:32:07 10° 178° (S) 2,532 6.7 -5.9°
Maximum altitude 17:37:49 67° 97° (E) 943 4.3 -6.9°
Drops below altitude 10° 17:43:29 10° 16° (NNE) 2,512 6.5 -7.9°
Sets 17:45:55 0° 14° (NNE) 3,444 7.2 -8.3°
